User: anonymous   Login
Location: Asarope
(8.2500°N, 4.4833°E)
Time: 15:14:13
(UTC+00:00)
Language:

Hubble Space Telescope - Orbit

View from above orbital plane
View from above orbital plane
View from above satellite
View from above satellite

Ground track
Ground track

The orbit data is extracted from the following two-line orbital elements,

1 20580U 90037B   21261.20597003  .00000682  00000-0  30210-4 0  9998
2 20580  28.4693 171.3223 0002574 345.9629 143.7943 15.09738553525294
Epoch (UTC): 18 September 2021 04:56:35
Eccentricity: 0.0002574
inclination: 28.4693°
perigee height: 535 km
apogee height: 539 km
right ascension of ascending node: 171.3223°
argument of perigee: 345.9629°
revolutions per day: 15.09738553
mean anomaly at epoch: 143.7943°
orbit number at epoch: 52529

The dashed part of the orbit path shows where the satellite is in the earth's shadow,  

DLR